Home   Weather   Sterling   Past weeks
Flag for USA

Past Weather in Sterling, Virginia, USA — Yesterday and Last 2 Weeks

Now
48 °F

Passing clouds.


Feels Like: 45 °F
Forecast: 51 / 30 °F
Wind: 7 mph from Northwest

Location: Washington-Dulles International Airport

Current Time: Mar 19, 2019 at 3:25:10 pm

Latest Report: Mar 19, 2019 at 1:52 pm


Visibility: 10 mi

Pressure: 30.45 "Hg

Humidity: 28%

Dew Point: 16 °F

Location of SterlingLocation

Past Weather in Sterling — Graph

°F

Sterling Temperature Yesterday

Maximum temperature yesterday: 49 °F (at 2:52 pm)
Minimum temperature yesterday: 31 °F (at 3:52 am)
Average temperature yesterday: 41 °F

High & Low Weather Summary for the Past Weeks

 TemperatureHumidityPressure
High76 °F (Mar 15, 3:52 pm)96% (Mar 8, 5:52 pm)30.49 "Hg (Mar 8, 5:52 pm)
Low18 °F (Mar 7, 1:52 am)20% (Mar 11, 4:52 pm)29.68 "Hg (Mar 15, 5:52 pm)
Average42 °F53%30.17 "Hg
* Reported Mar 4 12:52 pm — Mar 19 1:52 pm, Sterling. Weather by CustomWeather, © 2019

Note: Actual official high and low records may vary slightly from our data, if they occured in-between our weather recording intervals... More about our weather records

Advertising

Sterling Weather History for the Previous 24 Hours

Scroll right to see more
 ConditionsComfort  
Time TempWeatherWind HumidityBarometerVisibility
1:52 pm
Tue, Mar 19
48 °FPassing clouds.7 mph28%30.45 "Hg10 mi
12:52 pm46 °FScattered clouds.No wind30%30.47 "Hg10 mi
11:52 am46 °FSunny.5 mph30%30.48 "Hg10 mi
10:52 am44 °FSunny.5 mph35%30.49 "Hg10 mi
9:52 am41 °FSunny.3 mph39%30.49 "Hg10 mi
8:52 am35 °FSunny.No wind59%30.46 "Hg10 mi
7:52 am24 °FSunny.No wind77%30.45 "Hg10 mi
6:52 am25 °FClear.No wind72%30.43 "Hg10 mi
5:52 am25 °FClear.No wind75%30.42 "Hg10 mi
4:52 am27 °FClear.No wind69%30.40 "Hg10 mi
3:52 am28 °FClear.No wind66%30.40 "Hg10 mi
2:52 am29 °FClear.5 mph64%30.39 "Hg10 mi
1:52 am30 °FClear.5 mph61%30.40 "Hg10 mi
12:52 am36 °FClear.5 mph46%30.39 "Hg10 mi
11:52 pm
Mon, Mar 18
40 °FClear.7 mph40%30.38 "Hg10 mi
10:52 pm39 °FPassing clouds.8 mph46%30.37 "Hg10 mi
9:52 pm37 °FPassing clouds.5 mph54%30.36 "Hg10 mi
8:52 pm38 °FPassing clouds.3 mph53%30.33 "Hg10 mi
7:52 pm44 °FPassing clouds.7 mph41%30.32 "Hg10 mi
6:52 pm47 °FPartly sunny.9 mph34%30.28 "Hg10 mi
5:52 pm49 °FPartly sunny.9 mph29%30.27 "Hg10 mi
4:52 pm47 °FPartly sunny.7 mph33%30.26 "Hg10 mi
3:52 pm48 °FPartly sunny.8 mph32%30.25 "Hg10 mi
Weather by CustomWeather, © 2019

See weather overview